Manhattan, KS

6:57 AM CST on February 25, 2017 (GMT -0600)
Manhattan Regional

Weather History for KMHK - April, 2014

Change the Weather History Date:

Wednesday, April 23, 2014

  Actual Average Record
Temperature  
Mean Temperature 71 °F 56 °F  
Max Temperature 87 °F 69 °F 87 °F (2014)
Min Temperature 54 °F 44 °F 31 °F (2012)
Degree Days  
Heating Degree Days 0 9  
Month to date heating degree days 283 289  
Since 1 July heating degree days 5564 5125  
Cooling Degree Days 6 1  
Month to date cooling degree days 22 12  
Year to date cooling degree days 22 14  
Growing Degree Days 18 (Base 50)    
Moisture  
Dew Point 43 °F    
Average Humidity 39    
Maximum Humidity 55    
Minimum Humidity 23    
Precipitation  
Precipitation 0.02 in 0.10 in 1.11 in (2003)
Month to date precipitation 0.67 1.90  
Year to date precipitation 2.42 5.82  
Sea Level Pressure  
Sea Level Pressure 29.74 in    
Wind  
Wind Speed 17 mph (SSE)    
Max Wind Speed 32 mph    
Max Gust Speed 46 mph    
Visibility 10 miles    
Events Rain    
T = Trace of Precipitation, MM = Missing Value Source: NWS Daily Summary

Daily Weather History Graph

Daily Weather History Graph

Search for Another Location

Airport or City:

Trip Planner

Search our weather history database for the weather conditions in past years. The results will help you decide how hot, cold, wet, or windy it might be!

Date:

Astronomy

Apr. 23, 2014 Rise Set
Actual Time 6:38 AM CDT 8:11 PM CDT
Civil Twilight 6:10 AM CDT 8:40 PM CDT
Nautical Twilight 5:36 AM CDT 9:14 PM CDT
Astronomical Twilight 5:00 AM CDT 9:50 PM CDT
Moon 3:08 AM CDT (4/23) 2:24 PM CDT (4/23)
Length of Visible Light 14h 29m
Length of Day
13h 33m
Waning Crescent, 34% of the Moon is Illuminated
Apr 23
Waning Crescent
Apr 29
New
May 6
First Quarter
May 14
Full
May 21
Last Quarter

Hourly Weather History & Observations

Time (CDT) Temp. Dew Point Humidity Pressure Visibility Wind Dir Wind Speed Gust Speed Precip Events Conditions
12:52 AM 53.1 °F 36.0 °F 52% 29.94 in 10.0 mi Calm Calm - N/A   Clear
1:52 AM 57.0 °F 36.0 °F 45% 29.95 in 10.0 mi South 5.8 mph - N/A   Mostly Cloudy
2:52 AM 57.9 °F 37.0 °F 46% 29.89 in 10.0 mi SSE 10.4 mph - 0.00 in   Mostly Cloudy
3:52 AM 57.9 °F 37.0 °F 46% 29.89 in 10.0 mi SSE 8.1 mph 18.4 mph N/A   Overcast
4:52 AM 61.0 °F 36.0 °F 39% 29.89 in 10.0 mi SSE 10.4 mph 17.3 mph 0.00 in Rain Light Rain
5:52 AM 57.0 °F 41.0 °F 55% 29.89 in 10.0 mi East 3.5 mph - 0.01 in Rain Light Rain
6:52 AM 55.9 °F 39.0 °F 53% 29.88 in 10.0 mi ESE 13.8 mph - 0.00 in Rain Light Rain
7:52 AM 57.0 °F 39.0 °F 51% 29.88 in 10.0 mi SSE 13.8 mph - 0.00 in   Overcast
8:52 AM 57.9 °F 39.9 °F 51% 29.90 in 10.0 mi SE 10.4 mph - 0.00 in Rain Light Rain
9:52 AM 57.9 °F 42.1 °F 56% 29.88 in 10.0 mi ESE 12.7 mph - 0.01 in Rain Light Rain
10:52 AM 60.1 °F 42.1 °F 51% 29.83 in 10.0 mi SE 16.1 mph 24.2 mph 0.00 in   Scattered Clouds
11:52 AM 66.0 °F 41.0 °F 40% 29.78 in 10.0 mi SSE 13.8 mph 23.0 mph 0.00 in Rain Light Rain
12:52 PM 75.0 °F 42.1 °F 31% 29.75 in 10.0 mi SSE 20.7 mph 33.4 mph 0.00 in   Clear
1:52 PM 75.9 °F 44.1 °F 32% 29.73 in 10.0 mi South 19.6 mph 27.6 mph N/A   Mostly Cloudy
2:52 PM 80.6 °F 44.6 °F 28% 29.69 in 10.0 mi SSE 17.3 mph 31.1 mph N/A   Scattered Clouds
3:52 PM 84.0 °F 44.1 °F 25% 29.63 in 10.0 mi South 19.6 mph 27.6 mph N/A   Clear
4:52 PM 84.9 °F 45.0 °F 25% 29.60 in 10.0 mi SSW 27.6 mph 46.0 mph N/A   Clear
5:52 PM 84.0 °F 42.1 °F 23% 29.55 in 10.0 mi South 25.3 mph 41.4 mph N/A   Clear
6:52 PM 82.9 °F 43.0 °F 24% 29.52 in 10.0 mi South 25.3 mph 35.7 mph N/A   Partly Cloudy
7:52 PM 80.1 °F 46.9 °F 31% 29.53 in 10.0 mi South 20.7 mph 28.8 mph N/A   Partly Cloudy
8:52 PM 75.9 °F 51.1 °F 42% 29.52 in 10.0 mi South 21.9 mph 32.2 mph N/A   Clear
9:52 PM 75.0 °F 53.1 °F 46% 29.57 in 10.0 mi South 26.5 mph 34.5 mph N/A   Clear
10:52 PM 73.9 °F 53.1 °F 48% 29.55 in 10.0 mi South 25.3 mph 33.4 mph N/A   Clear
11:52 PM 73.9 °F 53.1 °F 48% 29.46 in 10.0 mi South 21.9 mph 31.1 mph N/A   Clear